Terminal Aerodrome Forecast
Issued by NWS

Home | Current Version | Previous Version | Text Only | Print | Product List | Glossary On
Versions: 1 2 3 4 5 6 7 8 9 10 11 12 13 14 15 16 17 18 19 20
000
FTUS41 KBTV 271728
TAFMPV
TAF
KMPV 271728Z 2718/2818 19008KT P6SM -SHRA OVC012
      TEMPO 2718/2722 5SM -SHRA BR OVC010
     FM280000 VRB03KT 5SM -DZ BR OVC011
     FM281500 17004KT 5SM -DZ BR OVC011=

USA.gov is the U.S. government's official web portal to all federal, state and local government web resources and services.